| time (UTC) | temp F | wind direction | speed MPH | gust MPH | rain 1hr in | rain 24hr in | rain mn in | humidity % | barometer mb |
| 20260505173049 | 61 | 210 | 2.0 | 7.0 | 0.00 | 0.64 | 0.64 | 89 | 1008.1 |
| 20260505171556 | 62 | 261 | 2.0 | 6.0 | 0.00 | 0.64 | 0.64 | 88 | 1008.3 |
| 20260505170051 | 62 | 236 | 1.0 | 9.0 | 0.00 | 0.64 | 0.64 | 89 | 1008.2 |
| 20260505164553 | 62 | 232 | 2.0 | 4.0 | 0.00 | 0.64 | 0.64 | 88 | 1008.5 |
| 20260505163049 | 62 | 246 | 2.0 | 4.0 | 0.00 | 0.64 | 0.64 | 89 | 1008.2 |
| 20260505161551 | 62 | 216 | 1.0 | 4.0 | 0.00 | 0.64 | 0.64 | 89 | 1008.4 |
| 20260505153053 | 61 | 276 | 7.0 | 13.0 | 0.00 | 0.64 | 0.64 | 90 | 1008.7 |
| 20260505151551 | 61 | 279 | 4.0 | 11.0 | 0.00 | 0.64 | 0.64 | 89 | 1008.6 |
| 20260505124608 | 56 | 0 | 1.0 | 8.0 | 0.00 | 0.64 | 0.64 | 96 | 1007.5 |
| 20260505123105 | 55 | 200 | 2.0 | 11.0 | 0.00 | 0.64 | 0.64 | 96 | 1007.7 |
| 20260505121551 | 55 | 255 | 1.0 | 8.0 | 0.00 | 0.64 | 0.64 | 96 | 1007.4 |
| 20260505120108 | 54 | 208 | 0.0 | 4.0 | 0.00 | 0.64 | 0.64 | 96 | 1006.9 |
| 20260505114558 | 54 | 0 | 0.0 | 6.0 | 0.00 | 0.64 | 0.64 | 96 | 1006.9 |
| 20260505113102 | 54 | 200 | 0.0 | 4.0 | 0.00 | 0.64 | 0.64 | 96 | 1007.1 |
| 20260505111556 | 54 | 0 | 0.0 | 5.0 | 0.00 | 0.64 | 0.64 | 96 | 1007.1 |
| 20260505101557 | 54 | 0 | 0.0 | 4.0 | 0.02 | 0.64 | 0.64 | 96 | 1006.0 |
| 20260505100100 | 54 | 0 | 2.0 | 13.0 | 0.01 | 0.63 | 0.63 | 96 | 1005.3 |
| 20260505094602 | 54 | 140 | 3.0 | 12.0 | 0.02 | 0.63 | 0.63 | 96 | 1004.9 |
| 20260505093056 | 54 | 182 | 3.0 | 11.0 | 0.04 | 0.63 | 0.63 | 96 | 1005.6 |
| 20260505091607 | 54 | 103 | 1.0 | 6.0 | 0.05 | 0.62 | 0.62 | 96 | 1005.6 |
| 20260505090058 | 54 | 194 | 0.0 | 3.0 | 0.08 | 0.62 | 0.62 | 95 | 1006.9 |
| 20260505084606 | 54 | 0 | 0.0 | 3.0 | 0.21 | 0.61 | 0.61 | 95 | 1007.8 |
| 20260505083103 | 54 | 0 | 0.0 | 0.0 | 0.24 | 0.58 | 0.58 | 95 | 1007.9 |
| 20260505081557 | 55 | 0 | 1.0 | 3.0 | 0.34 | 0.57 | 0.57 | 95 | 1008.1 |
| 20260505080056 | 55 | 0 | 1.0 | 3.0 | 0.37 | 0.52 | 0.52 | 95 | 1008.0 |
| 20260505074553 | 55 | 0 | 0.0 | 1.0 | 0.31 | 0.40 | 0.40 | 95 | 1007.3 |
| 20260505073056 | 55 | 0 | 0.0 | 3.0 | 0.29 | 0.35 | 0.35 | 94 | 1007.2 |
| 20260505071554 | 55 | 65 | 1.0 | 4.0 | 0.20 | 0.23 | 0.23 | 94 | 1006.5 |
| 20260505070104 | 56 | 0 | 0.0 | 1.0 | 0.16 | 0.16 | 0.16 | 93 | 1007.3 |
| 20260505064557 | 56 | 0 | 0.0 | 2.0 | 0.09 | 0.09 | 0.09 | 92 | 1007.5 |
| 20260505063052 | 57 | 0 | 0.0 | 8.0 | 0.06 | 0.06 | 0.06 | 91 | 1007.8 |
| 20260505061625 | 60 | 313 | 2.0 | 27.0 | 0.02 | 0.02 | 0.02 | 86 | 1007.5 |
| 20260505060059 | 65 | 278 | 13.0 | 27.0 | 0.00 | 0.00 | 0.00 | 72 | 1007.4 |
| 20260505054556 | 65 | 238 | 3.0 | 16.0 | 0.00 | 0.00 | 0.00 | 68 | 1005.7 |
| 20260505053056 | 64 | 217 | 4.0 | 12.0 | 0.00 | 0.00 | 0.00 | 68 | 1004.7 |
| 20260505051557 | 64 | 237 | 3.0 | 15.0 | 0.00 | 0.00 | 0.00 | 70 | 1004.3 |
| 20260505041557 | 64 | 209 | 2.0 | 10.0 | 0.00 | 0.00 | 0.00 | 70 | 1003.8 |
| 20260505034550 | 65 | 190 | 2.0 | 11.0 | 0.00 | 0.00 | 0.00 | 70 | 1004.1 |
| 20260505033100 | 65 | 244 | 3.0 | 12.0 | 0.00 | 0.00 | 0.00 | 71 | 1004.3 |
| 20260505031556 | 65 | 216 | 2.0 | 10.0 | 0.00 | 0.00 | 0.00 | 69 | 1004.5 |
| 20260505030057 | 65 | 211 | 2.0 | 9.0 | 0.00 | 0.00 | 0.00 | 69 | 1004.5 |
| 20260505024555 | 66 | 0 | 2.0 | 6.0 | 0.00 | 0.00 | 0.00 | 68 | 1004.5 |
| 20260505023054 | 66 | 230 | 3.0 | 13.0 | 0.00 | 0.00 | 0.00 | 67 | 1004.5 |
| 20260505021552 | 66 | 204 | 2.0 | 9.0 | 0.00 | 0.00 | 0.00 | 68 | 1004.4 |
| 20260505020050 | 66 | 208 | 1.0 | 6.0 | 0.00 | 0.00 | 0.00 | 67 | 1004.3 |
| 20260505014549 | 66 | 162 | 2.0 | 7.0 | 0.00 | 0.00 | 0.00 | 67 | 1004.1 |
| 20260505013054 | 66 | 218 | 2.0 | 9.0 | 0.00 | 0.00 | 0.00 | 67 | 1003.7 |
| 20260505011552 | 67 | 205 | 1.0 | 10.0 | 0.00 | 0.00 | 0.00 | 64 | 1003.6 |
| 20260505004550 | 69 | 208 | 2.0 | 7.0 | 0.00 | 0.00 | 0.00 | 60 | 1003.4 |
| 20260505003048 | 70 | 211 | 2.0 | 14.0 | 0.00 | 0.00 | 0.00 | 59 | 1003.5 |
| 20260505001552 | 71 | 221 | 4.0 | 15.0 | 0.00 | 0.00 | 0.00 | 57 | 1003.6 |
| 20260505000059 | 72 | 208 | 2.0 | 13.0 | 0.00 | 0.00 | 0.00 | 55 | 1003.6 |
| 20260504234605 | 72 | 178 | 5.0 | 9.0 | 0.00 | 0.00 | 0.00 | 56 | 1003.7 |
| 20260504233050 | 72 | 221 | 5.0 | 12.0 | 0.00 | 0.00 | 0.00 | 56 | 1003.9 |
| 20260504231553 | 72 | 215 | 3.0 | 11.0 | 0.00 | 0.00 | 0.00 | 61 | 1004.2 |
| 20260504230052 | 72 | 0 | 2.0 | 11.0 | 0.00 | 0.00 | 0.00 | 60 | 1004.3 |
| 20260504224554 | 71 | 250 | 4.0 | 13.0 | 0.00 | 0.00 | 0.00 | 64 | 1004.6 |
| 20260504223055 | 71 | 219 | 2.0 | 10.0 | 0.00 | 0.00 | 0.00 | 62 | 1004.7 |
| 20260504221552 | 71 | 212 | 4.0 | 11.0 | 0.00 | 0.00 | 0.00 | 62 | 1004.7 |
| 20260504220104 | 71 | 205 | 4.0 | 12.0 | 0.00 | 0.00 | 0.00 | 65 | 1004.8 |
| 20260504214600 | 69 | 202 | 2.0 | 14.0 | 0.00 | 0.00 | 0.00 | 69 | 1004.7 |
| 20260504213111 | 68 | 212 | 3.0 | 10.0 | 0.00 | 0.00 | 0.00 | 72 | 1005.0 |
| 20260504211556 | 66 | 190 | 3.0 | 7.0 | 0.00 | 0.00 | 0.00 | 75 | 1005.0 |
| 20260504210105 | 65 | 175 | 4.0 | 11.0 | 0.00 | 0.00 | 0.00 | 75 | 1005.3 |
| 20260504204602 | 65 | 205 | 4.0 | 11.0 | 0.00 | 0.00 | 0.00 | 76 | 1005.3 |
| 20260504203058 | 66 | 198 | 5.0 | 22.0 | 0.00 | 0.00 | 0.00 | 70 | 1004.8 |
| 20260504201557 | 67 | 219 | 4.0 | 11.0 | 0.00 | 0.00 | 0.00 | 66 | 1005.6 |
| 20260504200054 | 67 | 201 | 5.0 | 17.0 | 0.00 | 0.00 | 0.00 | 66 | 1005.4 |
| 20260504194556 | 68 | 216 | 5.0 | 12.0 | 0.00 | 0.00 | 0.00 | 61 | 1005.9 |
| 20260504193103 | 68 | 253 | 4.0 | 12.0 | 0.00 | 0.00 | 0.00 | 67 | 1006.0 |
| 20260504191548 | 68 | 240 | 6.0 | 24.0 | 0.00 | 0.00 | 0.00 | 66 | 1006.9 |
| 20260504190059 | 68 | 220 | 5.0 | 17.0 | 0.00 | 0.00 | 0.00 | 68 | 1007.0 |
| 20260504184547 | 68 | 247 | 7.0 | 19.0 | 0.00 | 0.00 | 0.00 | 67 | 1007.2 |
| 20260504183058 | 69 | 209 | 4.0 | 11.0 | 0.00 | 0.00 | 0.00 | 67 | 1006.8 |
| 20260504181552 | 71 | 221 | 3.0 | 15.0 | 0.00 | 0.00 | 0.00 | 67 | 1006.4 |
| 20260504180130 | 70 | 239 | 3.0 | 10.0 | 0.00 | 0.00 | 0.00 | 68 | 1006.4 |
| 20260504174556 | 69 | 149 | 4.0 | 12.0 | 0.00 | 0.00 | 0.00 | 71 | 1006.5 |